Hyannis, MA

7:16 PM EDT on July 29, 2016 (GMT -0400)
Barnstable Municipal-Boardman-Polando Field

Weather History for KHYA - March, 2014

Change the Weather History Date:

Tuesday, March 4, 2014

  Actual Average Record
Temperature  
Mean Temperature 24 °F -  
Max Temperature 28 °F 41 °F 64 °F (1991)
Min Temperature 19 °F 26 °F 2 °F (1950)
Degree Days  
Heating Degree Days 42    
Moisture  
Dew Point 11 °F    
Average Humidity 56    
Maximum Humidity 63    
Minimum Humidity 45    
Precipitation  
Precipitation 0.00 in - - ()
Sea Level Pressure  
Sea Level Pressure 30.29 in    
Wind  
Wind Speed 8 mph (WNW)    
Max Wind Speed 13 mph    
Max Gust Speed 20 mph    
Visibility 10 miles    
Events      
Averages and records for this station are not official NWS values.
T = Trace of Precipitation, MM = Missing Value Source: NWS Daily Summary

Daily Weather History Graph

Daily Weather History Graph

Search for Another Location

Airport or City:

Trip Planner

Search our weather history database for the weather conditions in past years. The results will help you decide how hot, cold, wet, or windy it might be!

Date:

Astronomy

Mar. 04, 2014 Rise Set
Actual Time 6:11 AM EST 5:35 PM EST
Civil Twilight 5:43 AM EST 6:02 PM EST
Nautical Twilight 5:11 AM EST 6:35 PM EST
Astronomical Twilight 4:39 AM EST 7:07 PM EST
Moon 7:51 AM EST (3/4) 9:42 PM EST (3/4)
Length of Visible Light 12h 19m
Length of Day
11h 23m
Waxing Crescent, 14% of the Moon is Illuminated
Mar 4
Waxing Crescent
Mar 8
First Quarter
Mar 16
Full
Mar 23
Last Quarter
Mar 30
New

Hourly Weather History & Observations

Time (EST) Temp. Windchill Dew Point Humidity Pressure Visibility Wind Dir Wind Speed Gust Speed Precip Events Conditions
12:56 AM 21.0 °F 12.4 °F 3.0 °F 46% 30.26 in 10.0 mi North 6.9 mph - N/A   Clear
1:56 AM 19.9 °F 12.1 °F 5.0 °F 52% 30.25 in 10.0 mi North 5.8 mph - N/A   Clear
2:56 AM 21.0 °F 11.4 °F 7.0 °F 55% 30.27 in 10.0 mi NNW 8.1 mph - N/A   Clear
3:56 AM 21.0 °F 11.4 °F 7.0 °F 55% 30.27 in 10.0 mi NNW 8.1 mph - N/A   Clear
4:56 AM 21.0 °F 10.6 °F 8.1 °F 57% 30.29 in 10.0 mi North 9.2 mph 19.6 mph N/A   Clear
5:56 AM 21.0 °F 12.4 °F 10.0 °F 63% 30.30 in 10.0 mi North 6.9 mph - N/A   Clear
6:56 AM 21.9 °F 14.5 °F 10.9 °F 63% 30.31 in 10.0 mi North 5.8 mph - N/A   Clear
7:56 AM 24.1 °F 15.2 °F 10.9 °F 57% 30.32 in 10.0 mi North 8.1 mph - N/A   Clear
8:56 AM 24.1 °F 13.1 °F 12.0 °F 60% 30.34 in 10.0 mi NNW 11.5 mph - N/A   Clear
9:56 AM 25.0 °F 14.2 °F 12.9 °F 60% 30.35 in 10.0 mi NNW 11.5 mph 18.4 mph N/A   Clear
10:56 AM 26.1 °F 16.2 °F 14.0 °F 60% 30.34 in 10.0 mi NNW 10.4 mph - N/A   Clear
11:56 AM 28.9 °F - 15.1 °F 56% 30.32 in 10.0 mi Calm Calm - N/A   Clear
12:56 PM 28.9 °F 20.4 °F 10.0 °F 45% 30.29 in 10.0 mi WSW 9.2 mph - N/A   Clear
1:56 PM 28.0 °F 18.6 °F 12.9 °F 53% 30.27 in 10.0 mi SW 10.4 mph - N/A   Clear
2:56 PM 28.0 °F 20.0 °F 14.0 °F 56% 30.27 in 10.0 mi SSW 8.1 mph - N/A   Clear
3:56 PM 27.0 °F 16.1 °F 16.0 °F 63% 30.27 in 10.0 mi SW 12.7 mph - N/A   Clear
4:56 PM 26.1 °F 15.6 °F 12.9 °F 58% 30.26 in 10.0 mi SW 11.5 mph - N/A   Clear
5:56 PM 25.0 °F 14.8 °F 10.0 °F 53% 30.27 in 10.0 mi WSW 10.4 mph - N/A   Mostly Cloudy
6:56 PM 25.0 °F 17.1 °F 9.0 °F 51% 30.28 in 10.0 mi WSW 6.9 mph - N/A   Mostly Cloudy
7:56 PM 26.1 °F 17.6 °F 10.9 °F 53% 30.27 in 10.0 mi SW 8.1 mph - N/A   Overcast
8:56 PM 27.0 °F 21.6 °F 12.0 °F 53% 30.27 in 10.0 mi Variable 4.6 mph - N/A   Overcast
9:56 PM 25.0 °F 17.1 °F 14.0 °F 63% 30.28 in 10.0 mi SW 6.9 mph - N/A   Scattered Clouds
10:56 PM 27.0 °F 23.0 °F 15.1 °F 61% 30.27 in 10.0 mi West 3.5 mph - N/A   Overcast
11:56 PM 26.1 °F 20.5 °F 14.0 °F 60% 30.25 in 10.0 mi WSW 4.6 mph - N/A   Overcast